Location: Zagreb
(45.8000°N, 16.0000°E)
Time: 18:42:23
(UTC+02:00)

A-11 Canister half - Pass Details

Date: 16 August 2022
Orbit: 1524 x 1684 km, 47.3° (Epoch: 05 October)

Event Time Altitude Azimuth Distance (km) Brightness Sun altitude
Rises 06:49:48 0° 255° (WSW) 4,909 11.0 8.0°
Reaches altitude 10° 06:52:56 10° 256° (WSW) 3,933 10.5 8.5°
Maximum altitude 07:03:08 89° 345° (NNW) 1,689 9.5 10.3°
Drops below altitude 10° 07:13:20 10° 78° (ENE) 3,929 14.3 12.0°
Sets 07:16:28 0° 79° (E) 4,904 13.7 12.6°
